Temp_Advection
nan nan nan nan nan nan nan nan nan nan nan nan nan nan nan nan nan nan nan nan nan nan nan nan nan nan nan nan nan nan nan nan nan nan nan nan nan nan nan nan nan nan nan nan nan
nan -0 -0 -0 -0 -0 -0 -0 -0 -0 -0 -0 0 0 0 0 0 -1 -1 0 0 0 0 -0 -0 0 0 0 0 0 -0 -0 -0 -0 -0 -0 -0 -0 -0 -1 -0 0 0 0 nan
nan 0 0 0 0 -0 -0 0 -0 -0 -0 -0 0 0 0 0 -0 -1 -0 0 0 0 0 -0 -0 0 0 0 0 0 -0 -0 -0 -0 0 0 -0 -1 0 -0 -1 0 0 0 nan
nan 0 0 0 0 0 -0 -0 -0 -0 -0 -0 0 0 0 0 -0 -0 0 0 0 1 0 -0 0 0 0 0 0 0 -0 -0 -0 -0 -0 -0 -0 -0 -1 -1 -0 -0 0 0 nan
nan 0 0 0 0 0 0 -0 -0 -0 -0 -0 0 0 0 0 -1 0 0 0 0 0 -0 0 0 0 0 0 -0 -0 -0 -1 -0 -0 -0 -0 0 -0 -1 -1 -1 -1 -1 -0 nan
nan 0 0 0 0 0 0 0 0 -0 -0 0 0 0 0 -0 -1 0 0 0 0 -0 0 -0 -0 0 0 0 -0 -0 -0 -0 -0 -0 -0 -0 -0 -1 -0 -0 -0 -1 -1 -1 nan
nan -0 0 0 -0 0 0 0 0 0 -0 0 0 0 -0 -2 0 0 0 0 0 0 0 -0 0 0 -0 -0 -0 0 -0 -0 -0 -0 -0 -0 0 -1 -1 -1 -1 -1 -1 -1 nan
nan -0 -0 0 0 0 0 0 0 0 -0 0 0 0 -1 -0 0 -0 0 0 0 0 0 0 0 -0 -0 -0 -0 -0 0 -0 -0 0 -0 0 -0 -0 -1 -0 -0 -1 -1 -1 nan
nan -0 -0 0 0 0 0 0 0 0 0 0 0 0 -0 -0 -0 -0 0 0 0 0 0 0 0 0 0 -0 -0 -0 -0 0 -0 -0 0 1 -1 -0 -0 1 -0 -1 -1 -1 nan
nan -0 0 0 0 1 0 0 0 0 0 0 0 -0 -1 -0 0 0 0 0 0 0 0 0 0 0 0 0 0 -0 -0 -0 0 -0 -0 -0 -1 -1 -2 -1 -0 -1 -2 -2 nan
nan -0 -0 -0 0 1 0 0 -0 -0 -0 -0 -0 -0 -0 0 0 0 0 0 0 0 0 0 0 0 0 0 -0 0 0 -0 -0 -0 -0 -0 -1 -1 -1 -1 -1 -1 -1 -2 nan
nan -1 -0 -0 1 1 0 -1 -0 -0 0 -1 -0 -0 0 0 -0 0 0 0 0 0 0 0 -0 -0 -0 0 0 0 -0 -0 -0 -0 0 -0 -1 -0 -0 -0 -1 -1 -2 -2 nan
nan -1 -0 -0 1 0 0 -0 0 0 -0 -0 1 0 -0 -0 0 -0 0 -0 -0 -0 0 -0 -0 -0 0 0 0 0 -0 -0 -0 -0 0 -0 -2 -1 -0 -1 -1 -1 -1 -1 nan
nan -1 -1 -0 0 0 0 1 0 0 -0 -0 0 -0 -0 -0 -0 -0 -0 -0 -0 -0 -0 -0 0 0 0 -0 -0 -0 -0 -0 -0 0 0 0 -1 -1 0 -0 -1 -1 -1 -1 nan
nan -1 -1 -0 0 -1 -0 -0 0 0 0 0 -0 0 -0 0 -0 0 0 0 0 -0 -0 0 0 -0 -0 -0 -0 -0 -0 0 0 0 -0 0 -0 -1 0 -0 -0 -0 -2 -2 nan
nan -1 -1 -0 0 -1 -0 -0 -0 -0 -0 0 -0 0 -0 -0 0 -0 0 0 -0 -0 0 0 -0 -0 -0 -0 0 0 0 0 0 0 -0 -0 -0 -2 -0 -1 -0 -1 -1 -1 nan
nan -1 -1 0 0 1 -0 0 0 -0 0 -0 -0 0 0 0 0 0 -0 0 -0 0 0 0 0 -0 0 0 0 0 0 0 0 0 -1 -0 -0 -1 -1 -0 -0 -0 -1 -1 nan
nan -1 -1 0 0 2 1 -0 0 -0 0 -0 -0 0 0 0 -0 0 0 0 0 0 -0 0 -0 -0 0 -0 -0 0 0 0 -0 -0 -1 0 -0 -1 -2 -0 -1 -1 -0 -0 nan
nan -1 -0 0 1 1 0 -0 -0 -0 -0 -0 -0 -0 -0 -0 0 0 0 -0 -0 -0 -0 -0 -0 -0 -0 -0 0 -0 -1 -0 -0 -0 -0 -0 -0 -1 -0 0 -1 -0 1 3 nan
nan -0 -0 0 0 1 -0 -0 -0 0 -0 -0 0 -0 -0 0 0 0 0 -0 -0 0 0 0 -0 -0 0 0 -0 -0 -0 0 0 -0 -1 -0 -1 -0 -0 -2 0 1 1 2 nan
nan 0 -0 0 1 0 -0 -0 -0 0 -0 -0 -0 -0 -0 0 0 0 -0 -0 -0 0 0 -0 -0 -0 0 -0 -0 -0 0 -0 -0 -0 -0 -0 -0 -1 -1 -1 2 0 0 1 nan
nan -0 -0 1 0 0 0 0 -0 0 0 0 0 -0 -0 0 0 -0 -0 -0 -0 -0 0 -0 0 -0 -1 -1 -0 0 0 -0 -0 -0 0 -0 -1 -0 -0 1 0 -0 0 0 nan
nan 0 0 0 -0 0 0 0 0 -0 0 -0 0 0 0 0 -0 -0 -0 -0 0 -0 -1 -1 -0 -0 -0 0 0 0 -0 0 0 -0 -0 -0 -0 0 0 1 0 -0 0 0 nan
nan 0 0 0 -0 -0 -0 -0 0 -0 -0 -0 -0 0 0 0 0 -0 -0 -0 -0 -0 -1 -0 0 -0 -0 -0 0 0 -0 1 -0 -0 -0 -1 -1 0 -0 -0 0 -0 -0 0 nan
nan -0 -0 -0 -0 -0 0 0 -0 -0 -0 0 0 0 0 0 -0 -0 -0 -0 -0 0 0 0 -0 -0 -0 0 1 1 -0 0 -0 -0 -0 -1 -0 0 -0 -0 -0 -0 -1 -0 nan
nan -0 -0 -0 0 0 0 -0 -0 -0 -0 0 0 -0 0 0 -0 -0 -0 0 0 0 0 -0 -0 0 -0 0 1 -1 0 -0 -1 -1 -1 -3 -0 -0 -0 -0 -0 -0 -1 -1 nan
nan nan nan nan nan nan nan nan nan nan nan nan nan nan nan nan nan nan nan nan nan nan nan nan nan nan nan nan nan nan nan nan nan nan nan nan nan nan nan nan nan nan nan nan nan
Wind_Speed
20 16 12 12 11 10 10 10 9 8 8 7 6 11 14 15 15 16 16 11 9 14 10 7 8 8 7 7 10 4 2 8 9 7 6 1 0 2 8 7 4 4 1 3 8
19 20 15 12 12 11 10 10 9 8 7 6 5 7 12 13 16 21 18 15 13 11 9 7 6 6 5 4 6 5 5 6 5 4 5 4 7 8 6 9 4 2 2 6 13
18 19 19 15 12 11 10 9 8 7 6 5 6 8 9 13 13 23 20 20 19 15 13 8 7 4 4 4 5 4 11 3 5 10 12 4 9 16 5 5 9 6 8 11 13
20 17 20 17 14 11 10 9 8 7 6 4 5 9 12 9 6 2 3 7 15 22 15 11 6 3 2 4 5 3 4 7 7 16 10 4 7 10 9 12 12 10 4 8 10
20 19 18 18 16 13 11 9 8 7 6 4 4 7 9 9 15 7 7 4 7 20 17 12 9 4 4 3 3 4 3 9 13 17 19 21 16 12 21 27 28 23 21 15 13
21 21 18 17 16 14 11 10 9 8 6 5 6 7 8 5 11 18 12 8 6 10 12 12 5 10 5 4 3 2 9 11 10 15 13 12 17 15 9 13 22 24 25 24 21
23 21 19 17 17 15 12 10 9 8 6 5 6 7 10 20 8 8 19 16 11 9 12 10 11 5 3 4 6 5 5 7 5 7 7 9 22 22 25 26 26 28 26 28 26
25 23 20 21 18 15 14 11 10 8 6 5 6 8 9 5 12 14 11 8 14 11 10 5 6 5 3 9 6 3 0 1 3 8 9 10 25 2 19 29 29 29 29 31 30
26 25 23 21 18 16 14 12 11 8 6 6 6 8 10 6 10 13 21 10 12 13 9 8 5 4 1 2 4 3 4 2 6 5 4 12 10 4 15 22 23 28 27 28 32
22 27 26 24 20 16 15 13 11 9 8 6 7 5 9 4 4 5 18 16 10 12 9 9 4 2 3 8 6 4 4 4 5 4 5 11 15 9 22 23 20 26 32 36 31
24 29 27 25 25 20 21 14 5 5 17 11 10 6 2 2 6 5 11 19 13 7 5 4 4 12 12 9 11 4 3 5 4 7 7 10 16 13 15 20 18 24 29 32 36
28 26 28 27 27 25 23 20 10 3 5 26 23 18 7 4 0 7 10 13 8 6 4 3 13 8 7 9 7 7 11 12 6 9 7 13 24 18 12 17 21 25 28 33 37
28 24 32 28 26 30 30 25 13 5 2 7 24 24 20 17 10 10 16 10 4 6 8 10 3 7 9 6 9 12 11 7 12 7 11 11 27 17 13 26 28 33 35 35 37
26 30 32 28 32 34 30 25 18 6 1 4 6 6 12 13 6 27 23 11 4 13 6 8 12 7 6 11 10 15 9 14 12 8 6 3 13 12 3 12 17 29 32 34 38
27 27 31 31 23 36 27 23 16 7 1 3 4 6 10 16 3 2 23 16 9 7 6 7 5 13 16 14 13 7 8 7 7 6 9 18 7 5 9 17 21 9 25 32 43
29 25 29 33 31 38 23 27 19 3 7 5 5 6 7 8 3 4 10 12 2 10 12 7 5 5 8 12 17 4 4 7 5 8 13 12 13 21 12 19 15 12 28 34 36
26 23 28 28 38 36 33 33 4 4 2 7 5 5 8 7 6 5 5 11 6 5 7 7 14 3 3 4 3 9 6 4 5 7 12 10 11 19 9 11 11 10 15 30 37
17 20 26 41 41 40 44 4 4 5 5 4 5 7 6 7 4 8 7 8 14 6 1 5 5 17 13 16 8 11 13 7 6 5 9 9 14 17 26 24 39 37 29 26 35
12 18 21 32 42 46 35 4 7 6 7 9 7 4 5 6 3 8 11 7 8 19 9 5 6 3 7 12 15 7 13 16 15 21 13 9 13 11 16 10 12 19 24 26 32
6 11 17 41 45 49 12 7 3 4 6 4 5 6 6 7 8 8 8 5 8 18 8 3 4 7 4 6 13 16 5 7 5 9 14 8 17 15 13 23 25 10 14 25 30
8 4 9 30 49 27 6 5 4 7 8 4 6 5 5 6 10 6 6 3 11 9 19 3 4 2 4 9 12 9 8 7 5 6 4 4 7 22 22 22 23 10 21 31 34
11 2 17 51 7 3 4 8 6 5 4 2 3 5 6 7 5 8 10 7 10 11 10 9 4 4 12 12 14 15 10 15 10 8 5 4 14 3 13 14 14 14 24 26 29
8 5 31 42 5 5 7 4 4 4 5 5 6 5 8 6 6 10 8 8 15 11 13 11 5 4 8 1 10 9 16 18 11 9 11 2 9 9 7 13 15 19 25 29 35
5 3 9 20 5 12 9 6 5 7 5 6 4 7 7 7 9 4 6 4 7 15 13 17 3 7 8 8 3 7 10 16 14 7 8 13 19 6 4 14 14 22 24 32 37
11 3 7 5 6 10 5 9 11 7 7 14 5 15 8 6 9 10 10 6 5 13 11 10 6 10 16 18 18 20 23 15 17 19 7 12 7 3 7 13 13 25 27 28 32
1 4 5 7 18 13 13 8 11 13 7 7 11 12 15 9 9 6 9 8 7 4 9 4 7 3 19 20 22 17 16 16 18 16 15 23 3 3 6 18 17 23 27 26 30
15 3 7 12 8 6 7 7 12 7 8 16 14 13 12 17 22 18 4 6 3 2 6 5 4 2 11 12 14 1 3 1 8 11 11 3 2 2 4 10 15 23 27 31 34
Wind_Direction
321 315 299 286 285 286 286 285 279 273 274 264 245 221 220 228 234 241 244 242 248 236 248 245 245 251 247 218 200 169 155 224 217 180 241 144 262 257 335 277 225 166 294 246 191
308 319 303 286 281 283 285 284 280 269 263 251 235 219 224 235 243 241 247 252 242 235 242 245 244 228 192 212 207 186 217 227 197 205 258 259 307 312 339 311 259 190 104 205 183
293 307 313 294 279 279 281 279 277 273 259 244 219 200 214 237 258 271 260 244 223 229 242 249 243 228 209 204 204 213 242 253 270 265 270 277 275 278 275 286 256 210 158 158 178
280 288 306 297 280 273 275 271 267 269 264 238 215 214 212 211 224 185 159 209 227 219 226 233 236 200 201 218 227 262 259 248 270 279 301 289 297 297 270 244 271 309 212 194 205
276 276 291 304 283 269 266 263 258 256 255 241 216 215 213 225 238 185 133 71 188 195 217 232 223 193 196 210 284 223 263 280 282 280 281 287 277 270 264 271 277 283 275 254 239
267 269 277 292 287 267 261 256 248 245 242 237 228 224 212 232 252 221 198 147 107 176 206 222 215 227 278 248 180 258 292 287 292 285 280 280 277 277 267 265 274 276 276 260 259
266 262 267 276 289 264 252 246 241 243 242 240 238 240 236 245 228 239 223 223 208 221 218 220 222 184 320 300 285 288 293 293 237 245 252 278 270 243 261 266 267 268 271 256 263
260 257 254 264 273 263 242 238 241 242 240 236 241 245 250 247 222 208 200 214 208 192 218 181 174 233 229 302 329 298 220 274 294 203 222 180 254 339 241 241 251 258 259 256 253
257 252 248 249 257 260 235 225 242 244 248 246 241 244 262 234 242 222 219 206 198 205 209 207 200 217 190 51 321 272 249 175 331 274 243 209 287 294 255 244 260 262 261 260 251
259 249 246 240 241 242 222 224 232 236 219 209 210 260 254 225 199 203 215 195 168 185 194 207 183 189 171 220 234 227 239 236 200 302 352 288 280 291 294 294 269 269 270 263 259
282 244 240 235 233 217 209 198 200 230 206 197 213 220 229 149 176 187 187 183 187 167 173 186 184 220 227 222 254 290 267 259 309 309 328 277 286 276 280 281 290 277 271 268 266
286 245 233 233 232 211 206 199 199 136 218 233 233 243 209 138 242 172 181 171 165 179 148 205 236 213 208 219 227 247 262 272 266 248 245 288 279 275 260 267 257 263 265 264 262
288 268 238 226 227 209 205 214 204 223 288 265 230 231 234 243 238 210 189 175 151 165 194 214 183 210 202 211 232 241 245 249 249 307 276 278 281 268 248 244 251 247 246 251 255
277 256 244 215 214 202 208 204 204 203 299 231 195 232 196 210 254 223 200 165 178 197 181 241 230 244 208 230 211 253 213 234 243 252 259 141 283 258 224 243 236 232 232 237 241
277 265 253 206 202 187 206 184 171 153 1 140 151 139 175 168 132 126 203 199 197 179 159 217 201 213 229 227 216 243 255 222 239 226 266 245 273 297 191 247 249 246 236 233 243
271 256 242 215 201 193 189 160 148 87 242 159 135 166 164 202 171 114 171 202 63 224 222 226 220 195 217 231 230 232 245 288 206 238 245 234 212 277 240 247 268 233 233 233 234
260 243 230 221 184 187 158 149 130 195 137 163 170 164 182 175 210 177 158 190 195 200 210 228 233 275 181 197 194 206 233 262 242 215 252 196 204 238 257 229 263 248 266 230 226
245 240 222 214 183 166 157 151 164 194 178 129 127 125 179 167 229 196 203 208 214 207 154 198 285 208 200 210 195 195 202 216 234 243 278 189 222 229 244 240 245 255 263 267 214
256 258 228 193 178 166 161 190 190 197 156 144 134 149 201 197 209 186 213 217 213 202 203 187 263 174 202 202 195 176 218 229 260 269 278 255 275 281 229 227 228 237 228 217 197
263 243 254 171 165 161 170 183 198 150 114 127 145 178 181 189 187 196 189 222 223 196 200 238 286 223 166 172 210 223 157 215 206 256 255 245 245 244 194 225 237 213 195 178 174
238 174 219 192 170 172 187 149 178 158 128 147 177 143 188 180 204 192 221 253 210 190 189 152 204 255 119 210 199 199 227 223 295 227 256 287 253 248 233 226 222 179 162 161 164
166 179 176 176 149 183 166 150 140 153 158 84 107 127 181 183 231 217 223 232 188 144 179 206 240 246 240 226 205 212 233 229 230 239 235 294 278 323 237 211 153 150 156 157 155
144 119 170 154 145 144 143 133 134 123 178 164 172 186 197 208 229 228 215 234 229 164 173 172 225 285 298 137 225 230 230 233 240 263 253 276 287 356 103 121 142 138 146 146 149
140 167 133 177 196 157 136 158 164 196 160 165 174 171 195 214 214 258 229 270 216 199 195 169 230 214 241 273 312 254 249 224 214 240 258 245 255 322 101 118 129 139 147 145 154
187 157 155 166 160 158 147 155 185 179 218 193 223 211 204 217 224 223 226 278 284 214 190 170 256 245 260 273 269 257 252 228 215 227 233 299 234 211 168 142 147 139 139 143 150
318 163 161 121 140 156 179 200 190 204 184 202 221 205 213 218 206 204 214 206 228 184 168 206 263 311 274 275 277 261 252 222 218 219 238 258 220 151 112 113 132 143 148 154 160
345 116 149 153 159 158 181 163 204 187 222 223 214 233 210 228 230 232 254 308 260 289 189 178 227 252 281 298 312 98 260 235 162 178 211 144 222 101 96 142 156 156 163 166 171
Height
1494 1491 1489 1489 1487 1486 1486 1485 1484 1482 1482 1481 1482 1483 1485 1487 1488 1489 1488 1490 1490 1490 1491 1491 1491 1491 1492 1493 1495 1495 1502 1500 1495 1498 1490 1486 1486 1485 1485 1484 1482 1482 1482 1483 1483
1491 1489 1487 1486 1485 1484 1483 1483 1483 1481 1481 1480 1482 1483 1485 1485 1486 1484 1487 1487 1488 1488 1489 1490 1490 1490 1491 1491 1493 1493 1495 1491 1489 1489 1488 1488 1486 1485 1485 1484 1482 1482 1482 1481 1482
1487 1486 1485 1483 1482 1482 1482 1482 1481 1480 1480 1480 1481 1482 1484 1485 1486 1480 1481 1482 1484 1486 1487 1488 1489 1490 1489 1490 1490 1489 1487 1487 1487 1487 1488 1487 1485 1484 1484 1485 1483 1482 1481 1480 1481
1483 1483 1482 1480 1480 1479 1479 1480 1480 1479 1479 1479 1480 1481 1482 1484 1487 1478 1478 1478 1479 1482 1485 1487 1489 1489 1490 1489 1488 1490 1486 1487 1487 1487 1487 1486 1484 1482 1481 1481 1481 1482 1481 1480 1480
1480 1479 1479 1477 1477 1477 1477 1478 1478 1478 1478 1479 1479 1480 1481 1483 1478 1478 1477 1477 1476 1480 1483 1486 1488 1489 1489 1487 1487 1487 1486 1486 1486 1486 1484 1483 1480 1480 1475 1478 1478 1479 1480 1479 1478
1475 1475 1475 1475 1474 1474 1475 1476 1476 1477 1477 1478 1478 1478 1480 1482 1475 1475 1476 1477 1478 1479 1482 1484 1486 1488 1488 1486 1486 1484 1484 1484 1484 1484 1483 1481 1476 1478 1470 1474 1474 1475 1475 1476 1475
1470 1470 1471 1472 1471 1471 1473 1474 1475 1476 1476 1477 1477 1477 1477 1472 1472 1472 1473 1475 1477 1480 1481 1482 1485 1487 1487 1486 1483 1481 1483 1481 1480 1480 1479 1479 1465 1463 1469 1469 1469 1470 1471 1471 1471
1464 1465 1466 1468 1468 1468 1470 1472 1473 1474 1475 1476 1476 1476 1472 1468 1467 1469 1471 1473 1476 1478 1481 1482 1484 1486 1486 1486 1484 1483 1483 1485 1474 1472 1474 1477 1447 1457 1460 1462 1461 1462 1464 1465 1466
1457 1459 1461 1463 1465 1466 1467 1469 1471 1472 1473 1474 1475 1474 1469 1465 1465 1466 1468 1473 1475 1478 1479 1481 1483 1485 1486 1489 1490 1487 1486 1484 1480 1471 1470 1470 1455 1454 1456 1457 1455 1455 1456 1457 1458
1449 1452 1455 1457 1460 1462 1464 1466 1468 1470 1472 1473 1474 1476 1466 1464 1464 1464 1465 1471 1474 1477 1479 1481 1481 1482 1486 1486 1494 1489 1488 1485 1481 1473 1471 1469 1460 1458 1455 1453 1454 1451 1451 1451 1452
1442 1444 1448 1451 1453 1456 1460 1464 1470 1469 1467 1464 1464 1463 1461 1463 1464 1465 1465 1469 1473 1476 1479 1479 1482 1478 1483 1484 1482 1485 1488 1487 1483 1477 1477 1467 1458 1455 1453 1450 1449 1446 1445 1445 1446
1436 1436 1439 1445 1448 1449 1453 1457 1459 1461 1461 1459 1460 1461 1460 1462 1463 1463 1465 1469 1471 1475 1477 1480 1475 1476 1479 1481 1482 1484 1485 1484 1481 1476 1476 1468 1445 1447 1446 1442 1441 1440 1438 1437 1439
1429 1429 1430 1437 1443 1443 1445 1448 1455 1458 1459 1453 1452 1454 1457 1461 1461 1461 1463 1466 1468 1473 1475 1474 1470 1469 1474 1477 1479 1479 1484 1486 1483 1477 1472 1471 1438 1434 1429 1428 1428 1425 1427 1428 1429
1422 1422 1422 1428 1437 1435 1442 1447 1452 1457 1462 1450 1450 1448 1452 1456 1456 1455 1459 1464 1467 1469 1473 1472 1468 1470 1472 1473 1476 1476 1474 1475 1476 1478 1477 1467 1439 1419 1420 1417 1412 1409 1414 1417 1421
1413 1414 1414 1419 1419 1426 1437 1443 1451 1457 1475 1447 1448 1448 1448 1452 1451 1452 1456 1460 1461 1464 1468 1463 1465 1467 1469 1465 1467 1469 1469 1472 1473 1475 1474 1462 1471 1415 1415 1413 1400 1405 1406 1407 1410
1403 1404 1406 1405 1411 1422 1430 1439 1450 1461 1457 1443 1445 1445 1447 1449 1449 1452 1455 1459 1459 1460 1460 1460 1460 1460 1458 1458 1463 1466 1469 1470 1470 1469 1461 1448 1460 1410 1413 1405 1400 1397 1397 1398 1403
1391 1394 1398 1394 1402 1413 1425 1438 1450 1450 1433 1440 1441 1444 1444 1446 1448 1449 1453 1455 1455 1457 1455 1457 1457 1455 1455 1459 1460 1465 1471 1470 1468 1459 1439 1434 1447 1422 1395 1392 1394 1393 1394 1394 1395
1383 1386 1389 1393 1395 1407 1421 1432 1442 1425 1431 1430 1436 1443 1445 1445 1446 1447 1448 1450 1452 1455 1461 1460 1458 1447 1447 1446 1450 1456 1460 1458 1467 1452 1426 1420 1415 1392 1377 1386 1384 1384 1387 1390 1389
1378 1380 1383 1381 1393 1400 1417 1420 1422 1420 1419 1425 1433 1440 1444 1440 1443 1444 1445 1445 1444 1447 1449 1456 1453 1436 1437 1438 1447 1449 1448 1449 1448 1434 1431 1416 1397 1381 1375 1375 1372 1372 1377 1380 1387
1374 1376 1375 1378 1390 1402 1411 1409 1415 1412 1415 1421 1428 1431 1438 1437 1442 1442 1441 1433 1435 1434 1440 1441 1451 1434 1433 1437 1438 1435 1437 1445 1443 1432 1418 1398 1388 1371 1363 1365 1355 1364 1367 1375 1384
1371 1373 1377 1384 1391 1399 1398 1406 1411 1410 1413 1421 1424 1431 1433 1434 1435 1437 1434 1427 1427 1428 1435 1440 1443 1437 1435 1431 1426 1435 1435 1435 1430 1419 1402 1392 1369 1351 1351 1346 1344 1357 1366 1373 1380
1368 1373 1371 1378 1389 1397 1397 1399 1405 1410 1414 1418 1419 1423 1427 1429 1431 1431 1428 1424 1418 1424 1434 1435 1436 1437 1425 1413 1415 1417 1421 1422 1419 1406 1398 1395 1360 1341 1335 1339 1345 1357 1366 1376 1382
1370 1372 1375 1373 1383 1391 1396 1400 1403 1409 1414 1416 1419 1421 1423 1428 1427 1423 1421 1418 1419 1422 1425 1427 1431 1431 1412 1408 1408 1415 1408 1409 1411 1406 1395 1390 1364 1345 1339 1342 1350 1356 1369 1375 1381
1370 1373 1375 1382 1382 1384 1392 1400 1405 1408 1410 1412 1415 1419 1422 1422 1422 1421 1416 1414 1412 1417 1418 1420 1420 1418 1409 1400 1407 1410 1402 1404 1405 1394 1383 1377 1363 1356 1349 1347 1355 1364 1374 1374 1382
1366 1367 1370 1379 1380 1385 1390 1395 1399 1404 1408 1409 1412 1412 1414 1417 1417 1413 1415 1415 1411 1410 1414 1418 1413 1409 1402 1397 1397 1395 1393 1394 1395 1385 1386 1361 1358 1353 1352 1352 1358 1362 1371 1379 1384
1364 1364 1369 1372 1380 1387 1390 1393 1395 1400 1402 1403 1404 1405 1409 1410 1407 1405 1408 1411 1408 1408 1408 1410 1407 1407 1397 1389 1389 1379 1370 1379 1386 1386 1387 1380 1356 1352 1354 1356 1362 1366 1372 1379 1385
1363 1363 1366 1375 1379 1382 1384 1386 1390 1393 1397 1396 1397 1400 1402 1399 1402 1404 1404 1406 1408 1406 1407 1408 1407 1404 1388 1381 1375 1371 1370 1360 1363 1363 1361 1356 1350 1348 1353 1355 1360 1366 1371 1376 1384